Wind_Speed
79 80 81 82 83 85 87 88 88 86 86 86 86 87 88 87 87 86 86 85 84 84 84 84 84 84 84 84 83 83 84 84 85 85 86 87 88 88 90 91 92 93 95 95 94 94 94 94 93 93 93 92 91 91 90 91 92 94 96 99 101 103
82 82 82 82 83 84 85 87 89 90 90 89 88 88 89 89 89 89 89 88 88 88 87 87 87 87 87 86 86 86 86 87 88 88 89 90 90 91 92 93 94 95 96 96 96 96 96 95 95 95 95 93 92 92 93 94 96 98 100 102 104 106
86 85 84 84 84 84 85 86 88 90 91 91 91 91 90 90 91 91 91 91 91 91 91 90 90 89 89 89 89 88 89 90 91 91 92 92 93 93 94 95 96 97 98 98 97 98 98 98 97 97 96 95 95 96 98 99 101 102 103 105 107 109
89 88 87 87 86 86 86 86 87 89 90 91 92 93 93 92 92 92 93 93 93 94 94 94 93 92 92 92 91 91 92 93 94 94 94 95 95 96 97 97 98 99 100 100 100 100 101 101 100 99 99 99 100 101 102 102 103 105 106 108 109 111
91 90 90 90 89 89 88 88 88 88 89 90 91 92 93 93 93 94 94 95 95 96 97 97 96 96 95 95 94 94 94 95 96 96 96 97 97 98 99 100 101 102 102 103 103 103 103 103 102 102 103 103 103 103 104 104 106 107 108 110 111 112
93 92 92 92 91 91 91 91 90 89 89 90 91 91 92 93 93 94 94 95 97 98 99 99 99 99 99 98 98 97 97 97 98 98 98 99 100 101 102 102 103 103 104 105 105 105 105 105 106 105 105 104 104 105 106 107 108 109 110 112 113 113
95 95 95 95 94 93 93 93 93 92 92 91 91 91 92 93 93 94 94 94 96 97 99 100 101 102 102 102 101 100 100 101 101 101 101 102 103 103 104 104 105 105 106 107 107 108 107 107 107 107 106 106 107 108 108 109 110 111 112 113 113 113
97 97 97 97 96 96 95 95 95 95 95 95 94 93 93 93 94 95 95 95 95 96 98 100 102 103 104 104 104 104 103 104 104 104 105 105 106 107 107 107 107 108 109 109 110 110 109 109 109 109 108 109 110 110 111 111 112 112 113 113 113 113
99 98 99 99 98 98 97 97 97 97 97 97 97 97 96 96 95 95 96 96 96 97 98 99 101 103 104 105 106 106 106 106 107 107 107 108 108 109 110 110 110 111 111 112 112 112 112 111 111 111 111 112 112 112 113 113 113 113 113 113 114 115
101 100 100 100 100 100 100 100 100 99 99 98 98 99 98 98 98 97 97 97 97 98 99 99 100 102 104 105 107 108 108 109 109 110 110 110 111 111 112 112 112 113 114 114 113 114 114 114 114 114 114 114 114 114 114 114 114 114 114 115 116 118
103 104 104 103 103 104 103 103 103 102 102 102 101 101 100 100 100 100 100 99 99 99 100 100 101 101 103 104 106 108 109 111 112 112 113 113 114 114 114 115 115 115 116 116 115 116 116 116 115 115 115 115 115 115 115 115 115 115 116 118 119 120
105 106 107 107 107 107 106 106 106 105 105 105 105 105 104 103 103 103 103 103 102 102 102 102 102 103 103 104 105 107 108 110 112 114 115 116 116 117 117 117 117 117 117 117 117 117 117 117 117 117 117 117 116 116 116 116 117 118 119 120 120 121
106 107 107 108 108 108 108 108 107 107 107 107 107 107 107 107 107 107 106 106 106 106 105 105 104 104 104 105 105 106 107 108 110 113 115 116 118 119 119 119 120 119 119 119 118 118 118 118 118 118 117 117 116 116 117 118 119 120 120 120 121 121
108 108 108 108 108 108 109 109 109 109 109 109 109 109 109 109 109 109 109 109 108 108 108 107 106 106 106 106 106 106 106 107 109 111 113 115 117 119 120 121 122 122 122 121 121 120 120 119 118 117 117 117 118 118 119 120 120 120 120 121 121 122
110 110 110 110 110 110 110 110 111 111 111 111 112 112 112 112 111 111 111 111 111 111 110 110 109 108 108 107 107 107 107 107 108 110 111 113 115 117 119 121 122 123 123 123 122 122 121 120 119 119 119 119 120 120 121 121 120 120 120 120 121 122
111 111 111 112 112 112 112 112 112 113 112 113 113 114 114 114 114 114 114 114 114 114 114 113 112 111 111 110 110 109 109 109 109 110 111 112 114 115 117 118 120 121 122 122 122 121 120 120 120 120 120 120 120 120 120 120 119 119 120 120 121 121
111 112 113 114 114 114 115 115 115 115 115 114 115 115 115 116 116 117 117 117 117 117 116 116 115 114 113 112 112 111 110 110 110 110 111 112 113 114 115 117 118 118 119 119 119 119 119 119 119 119 119 119 119 119 118 119 119 119 120 120 120 120
113 114 115 116 116 116 116 116 117 117 116 116 116 116 116 117 117 118 119 119 119 119 118 118 117 116 115 114 113 112 111 111 111 111 111 111 113 114 115 116 117 117 117 117 117 117 117 117 117 117 117 117 117 118 118 119 119 119 119 119 119 119
113 114 115 115 116 116 116 116 116 117 117 117 117 117 117 117 117 118 118 119 119 119 119 119 118 118 117 115 114 113 112 111 111 111 111 112 113 114 115 116 117 117 117 117 117 117 117 117 117 116 117 117 117 118 118 118 118 118 118 119 119 120
110 111 112 113 113 113 114 114 113 113 114 114 114 114 115 115 116 116 116 116 117 117 118 118 118 117 116 115 114 113 112 111 111 111 111 112 113 114 115 116 117 117 117 117 117 117 117 116 117 117 117 117 117 117 117 118 118 118 118 119 120 121
108 109 109 109 109 109 109 109 108 108 109 109 109 109 110 111 111 112 112 113 113 114 114 115 115 115 114 113 112 111 111 110 110 111 111 112 113 114 115 116 117 117 117 117 117 117 117 117 117 117 117 118 118 118 118 118 119 119 119 120 122 123
103 103 102 102 101 101 100 100 99 100 100 101 102 102 102 103 104 105 106 107 108 109 110 110 110 110 110 110 109 108 108 109 110 111 112 113 113 114 115 116 117 117 117 118 118 118 118 118 118 119 119 119 119 119 119 119 119 120 120 121 122 123
98 97 96 95 94 92 92 91 90 90 91 92 93 94 95 95 96 97 99 100 102 103 104 105 105 105 105 105 105 105 105 106 107 108 109 111 112 113 114 115 116 117 117 118 118 118 118 119 119 120 120 120 120 120 120 120 120 120 121 122 123 125
91 91 89 89 88 87 86 85 84 83 83 84 85 86 88 89 90 91 91 93 94 95 96 97 98 98 99 99 99 100 101 101 102 103 104 106 108 109 111 112 113 114 115 116 117 117 118 119 119 120 120 120 120 120 120 120 120 121 122 123 124 124
81 81 80 80 80 80 80 79 79 78 78 78 79 80 82 83 84 84 85 86 86 87 88 88 89 90 91 91 92 93 94 96 97 98 99 100 102 103 105 106 108 109 110 112 113 115 116 117 117 118 118 118 119 119 119 120 120 121 122 122 122 122
72 73 74 74 75 75 76 76 75 75 75 75 75 76 76 77 78 78 79 79 80 80 80 80 81 82 83 84 85 86 88 89 91 92 94 96 97 98 100 102 103 105 106 107 109 110 112 113 114 115 115 116 116 117 117 117 118 118 119 119 119 119
69 70 70 71 72 72 73 73 73 73 73 72 72 72 72 73 73 74 74 75 75 75 75 75 76 77 78 79 80 81 83 84 86 87 89 91 92 94 96 98 99 101 102 103 105 106 107 108 109 110 110 111 111 112 112 113 113 113 114 114 114 115
70 69 68 68 69 70 70 70 71 71 71 70 70 69 69 70 70 71 71 72 73 73 73 73 73 74 76 77 78 79 80 82 83 84 86 87 89 90 92 93 95 96 98 99 100 102 103 103 104 105 106 107 107 108 108 109 109 109 110 112 113 114
70 68 66 65 66 66 67 67 67 67 68 68 68 68 68 68 68 69 69 70 71 72 72 72 73 74 76 77 78 79 80 81 82 83 85 86 87 88 89 91 92 93 94 96 97 98 99 100 101 102 104 105 105 106 106 107 108 109 110 112 113 115
67 67 65 64 63 62 63 63 63 63 64 64 65 66 67 67 67 68 68 69 70 71 71 72 73 74 76 78 79 80 82 82 83 84 85 86 87 87 88 89 90 91 93 94 95 96 97 99 100 102 103 104 104 105 106 107 109 110 112 113 115 116
64 63 63 63 61 60 59 58 59 60 61 62 64 65 66 67 67 67 67 68 69 70 71 72 73 75 76 78 80 82 83 85 86 86 87 88 88 88 89 90 91 92 93 95 96 97 98 100 101 103 104 105 106 107 108 109 110 111 113 114 115 115
61 60 60 60 59 58 58 57 58 59 61 62 64 65 66 66 66 66 66 67 68 69 70 72 73 75 77 78 80 82 84 86 87 89 90 91 91 92 92 93 94 96 97 97 98 100 101 102 103 105 106 107 107 108 109 110 111 111 111 112 111 111
57 57 57 57 57 57 57 58 59 61 62 63 64 65 65 65 66 66 66 66 67 68 69 71 73 75 77 78 80 82 83 85 87 89 90 92 93 94 95 96 98 99 100 100 101 102 103 104 105 106 106 107 107 107 107 107 107 107 106 106 105 104
56 56 55 55 56 56 57 58 59 60 61 62 63 64 64 64 64 64 65 65 66 67 69 70 72 74 75 77 79 80 82 83 85 86 88 89 91 92 93 95 96 97 98 99 99 100 101 101 102 103 103 103 102 102 101 101 100 100 99 99 99 100
56 56 55 56 56 57 58 59 60 60 61 62 62 63 63 63 63 63 63 64 65 66 68 69 71 72 74 75 77 78 80 81 82 84 85 86 87 88 90 91 92 93 93 94 95 95 96 96 97 97 97 96 96 95 95 95 95 95 95 96 98 99
57 57 57 57 58 58 59 60 60 60 61 61 62 62 62 63 63 63 63 64 65 66 67 68 69 71 72 74 75 76 77 79 80 81 82 83 84 85 86 87 88 88 89 90 90 91 91 91 91 91 91 91 91 91 91 92 92 93 95 96 96 97
57 58 59 59 58 58 58 58 58 59 59 59 60 61 62 63 63 64 65 65 66 66 67 68 69 70 71 73 74 75 76 77 78 79 80 81 82 83 84 85 85 86 86 87 87 88 88 88 88 88 88 89 89 90 91 91 91 92 93 94 93 94
55 56 57 58 58 57 57 57 57 58 58 58 59 59 61 62 64 65 66 67 68 68 69 69 70 71 72 73 74 75 76 77 78 79 80 81 81 82 83 83 84 84 85 85 86 87 87 86 86 86 87 87 89 90 90 90 90 91 92 92 92 93
Wind_Direction
258 258 258 258 258 259 260 260 260 261 261 261 262 263 263 264 265 265 265 265 265 266 266 267 268 268 269 270 270 271 271 272 273 273 274 275 276 277 278 279 280 281 282 284 285 286 287 288 289 290 290 291 292 292 292 292 291 292 292 293 294 295
259 259 260 260 260 260 260 261 262 262 262 262 263 263 264 264 265 265 266 266 266 267 267 267 268 268 269 269 270 271 272 272 273 273 274 274 275 276 277 278 279 281 282 283 284 285 286 287 288 289 289 290 290 290 290 290 290 291 292 293 294 295
263 262 261 261 261 261 261 262 262 263 263 264 264 264 264 265 265 266 266 266 267 267 268 268 269 269 269 270 270 271 272 273 273 273 274 275 276 276 277 278 279 281 282 283 284 285 286 287 288 289 289 289 289 289 289 290 290 291 292 293 294 296
266 266 265 264 263 262 262 262 262 263 263 264 264 264 264 265 266 266 266 267 267 268 269 269 269 270 270 270 270 271 271 272 273 274 274 275 276 277 278 279 280 281 282 283 284 285 286 287 288 288 288 288 288 289 289 290 290 291 292 293 295 296
265 266 266 267 266 265 264 263 263 263 263 264 264 264 265 265 266 266 267 267 268 268 269 270 270 270 271 271 271 271 271 271 272 273 274 275 276 277 277 278 279 280 281 282 283 284 285 286 287 287 287 288 288 288 289 290 290 291 292 293 294 295
264 265 265 266 266 267 267 266 265 265 264 264 265 265 265 266 266 266 267 267 268 269 269 270 271 271 271 271 271 271 271 272 272 273 273 274 275 276 277 278 279 280 281 282 283 284 284 285 286 286 287 287 287 288 288 289 290 291 292 293 294 295
264 264 264 265 266 267 267 268 268 267 267 266 266 266 266 267 267 267 267 267 268 268 269 270 270 271 271 272 272 272 272 272 273 273 273 274 275 275 276 277 278 279 280 281 282 283 283 284 285 285 286 286 287 287 288 289 290 291 292 293 294 295
263 264 265 265 266 267 267 268 269 269 270 269 269 268 267 267 267 268 268 268 268 268 268 269 270 270 271 272 272 273 273 273 273 273 274 274 274 275 276 276 277 278 279 280 281 282 283 283 284 285 285 286 286 287 288 289 290 291 292 293 294 295
264 264 265 266 266 267 267 268 268 269 270 270 270 270 269 268 268 268 268 268 268 268 268 268 269 270 270 271 272 272 273 273 274 274 274 274 275 275 276 276 277 278 278 279 280 281 282 283 283 284 285 285 286 287 288 289 290 291 292 293 293 294
264 264 265 265 266 266 266 267 267 268 268 269 270 270 270 270 269 269 268 268 268 268 268 269 269 269 270 270 271 272 273 273 274 274 275 275 275 276 276 276 277 278 278 279 280 281 282 282 283 284 285 285 286 287 288 289 290 291 292 292 292 293
263 264 264 264 265 265 265 266 266 266 267 267 268 269 269 270 270 270 270 269 269 269 269 269 270 270 270 270 270 271 272 273 273 274 274 275 275 276 276 277 277 278 278 279 280 280 281 282 283 284 284 285 286 287 288 289 290 290 290 291 292 292
263 263 264 265 265 265 265 265 266 266 266 267 267 268 268 269 269 270 271 271 271 270 270 270 270 271 271 271 271 271 271 272 272 273 274 274 275 275 276 276 277 277 278 278 279 280 281 281 282 283 284 285 286 287 287 288 288 289 290 291 292 292
263 263 264 264 265 265 266 266 266 266 266 267 267 267 268 268 269 270 270 271 271 272 272 271 271 271 271 271 271 271 271 271 272 272 273 273 274 274 275 275 276 277 277 278 279 279 280 281 282 283 284 284 285 286 286 287 288 289 290 290 291 292
264 264 264 264 265 265 266 266 266 267 267 267 267 268 268 268 269 269 270 270 271 271 272 272 272 272 272 272 272 272 272 272 272 272 272 272 273 273 274 275 275 276 277 277 278 279 280 281 281 282 283 283 284 285 285 286 287 288 289 290 291 292
264 265 265 265 266 266 266 266 266 267 267 268 268 268 269 269 269 269 270 270 270 271 271 272 272 272 273 273 272 272 272 272 272 272 272 272 272 273 273 274 275 275 276 277 277 278 279 280 280 281 282 282 283 284 285 286 287 288 289 290 291 292
265 266 266 267 267 267 267 267 268 268 268 268 268 269 269 270 270 270 270 270 271 271 271 272 272 273 273 273 273 273 273 273 272 272 272 272 272 273 273 273 274 275 275 276 277 277 278 279 280 280 281 282 283 284 285 286 287 288 289 290 291 292
266 267 267 268 268 268 269 269 269 269 269 269 269 269 270 270 270 271 271 271 271 272 272 272 273 273 273 273 273 273 273 272 272 272 271 271 271 272 272 273 274 274 275 276 277 277 278 279 279 280 281 282 283 284 285 286 287 288 289 290 291 292
268 268 269 269 269 269 270 270 270 270 270 270 270 270 270 270 271 271 271 271 272 272 272 273 273 273 273 273 273 272 272 272 271 271 270 270 270 271 271 272 273 274 275 276 277 277 278 279 280 280 281 282 283 284 285 286 287 288 289 290 291 291
270 271 271 271 271 271 271 271 271 271 271 271 271 271 271 271 271 271 271 271 272 272 272 272 272 272 272 272 272 271 271 271 270 270 269 269 269 269 270 271 272 273 274 275 276 277 278 279 279 280 281 282 283 284 285 286 287 288 289 289 290 290
273 273 273 273 273 273 272 272 272 272 272 272 272 272 271 271 271 271 271 271 271 271 271 271 271 271 271 271 270 270 270 269 269 269 268 268 268 269 269 270 271 272 273 274 275 276 277 278 279 280 281 282 283 284 285 286 287 288 289 289 290 290
274 274 274 274 274 274 274 274 274 274 273 273 273 272 271 271 271 270 270 270 269 269 269 269 269 269 269 269 269 269 269 268 268 268 268 268 268 268 269 270 271 272 273 274 275 276 278 279 280 281 282 283 284 285 286 287 287 288 288 289 290 290
275 275 275 275 276 276 276 275 275 274 273 273 272 271 270 270 269 269 268 268 267 267 267 267 267 267 268 268 269 269 269 268 268 268 268 268 268 269 269 270 271 272 274 275 276 277 278 279 280 281 282 283 284 285 286 286 287 287 288 289 289 290
277 277 277 277 278 278 277 276 275 274 273 272 271 270 269 268 268 267 266 266 266 265 265 266 266 266 267 267 268 268 269 269 269 269 269 269 269 270 270 271 272 273 274 275 276 277 278 279 280 281 282 282 283 284 285 285 286 287 287 288 288 289
280 279 279 278 278 278 277 276 275 274 273 272 271 270 269 269 268 267 267 266 266 266 266 267 267 267 267 268 268 269 269 269 270 270 270 270 270 271 271 272 272 273 274 275 276 277 277 278 279 280 281 281 282 283 284 284 285 286 286 287 288 289
280 279 279 278 277 277 276 275 274 273 272 272 271 271 271 271 271 270 270 270 269 269 269 269 269 270 270 270 270 270 270 270 271 271 271 271 271 271 272 272 273 273 274 275 275 276 277 278 279 279 280 281 282 282 283 284 284 285 286 287 288 289
277 277 276 276 275 275 274 274 273 273 273 272 273 273 273 273 273 273 273 273 272 272 272 272 272 272 272 272 272 272 272 272 272 272 272 272 272 272 272 273 273 274 274 275 276 276 277 278 279 279 280 281 281 282 283 284 285 286 287 287 288 288
274 274 274 274 274 273 272 272 273 273 273 273 274 274 275 275 275 275 274 273 273 273 272 272 272 272 273 273 273 273 273 273 273 273 273 273 273 273 273 274 274 275 275 276 276 277 277 278 279 279 280 281 281 282 283 284 285 286 286 286 287 287
275 275 275 274 273 273 272 272 272 273 273 274 275 275 276 276 275 275 274 273 272 272 271 270 270 270 271 272 272 272 272 272 272 273 273 273 273 274 274 274 275 275 276 276 276 277 277 278 279 279 280 280 281 282 283 284 284 285 285 285 286 287
278 277 277 276 275 274 273 273 273 273 273 274 275 275 275 275 275 274 273 272 271 271 270 269 268 268 268 268 269 270 271 271 271 272 272 273 273 273 274 274 274 275 275 275 276 276 277 278 278 279 279 280 281 282 282 283 283 284 284 285 286 286
279 277 276 277 276 275 274 274 273 273 274 274 274 275 275 275 274 273 272 271 271 270 269 269 268 267 267 266 267 267 268 269 270 270 270 271 271 272 272 272 273 273 273 274 274 275 276 276 277 278 278 279 280 281 281 282 283 283 284 285 286 287
280 277 276 276 275 274 273 273 273 273 273 274 274 274 274 274 274 273 273 272 271 270 270 269 269 268 267 266 266 266 266 267 267 268 268 269 269 270 270 271 271 271 272 273 273 274 275 275 276 277 278 278 279 280 281 282 283 284 285 286 287 289
281 278 276 275 274 273 273 274 274 274 274 274 274 274 274 275 275 274 274 274 273 272 272 271 270 270 269 268 267 266 266 266 266 266 267 268 268 269 270 270 271 271 272 273 273 274 275 276 277 277 278 279 280 281 283 284 285 286 287 289 290 291
281 280 278 277 275 275 274 275 275 276 276 276 275 275 275 275 276 276 276 276 275 275 274 273 273 272 271 270 270 269 268 268 268 268 268 268 269 269 270 271 272 272 273 274 275 276 276 277 278 279 280 282 283 284 285 286 287 288 289 290 291 291
282 281 280 279 278 277 276 276 276 277 277 277 277 277 276 276 276 276 276 277 277 277 276 276 275 274 274 273 273 272 272 271 271 271 271 271 271 271 272 273 273 274 275 276 277 278 279 280 281 282 283 284 285 286 287 288 288 289 290 291 292 292
282 281 280 280 279 280 280 280 280 280 280 279 279 279 279 278 278 278 277 277 278 278 277 277 277 276 276 276 276 275 275 275 274 274 274 275 275 275 276 276 277 278 278 279 280 281 281 282 283 284 285 286 287 287 288 289 290 290 291 291 292 292
282 281 281 281 282 282 283 283 283 283 283 283 282 282 281 281 280 280 279 279 279 279 279 279 279 279 279 279 279 278 278 278 278 278 279 279 279 279 280 280 280 281 281 282 282 283 283 284 285 285 286 287 288 288 288 289 290 290 291 291 292 293
283 283 283 283 284 285 286 287 287 286 286 286 285 284 283 283 282 281 281 280 280 280 280 280 280 280 280 281 281 281 281 281 281 281 281 281 282 282 282 282 282 283 283 284 284 284 285 285 286 287 287 287 288 288 288 289 290 291 292 292 293 294
285 285 284 285 286 287 289 290 291 290 290 289 288 287 286 286 285 284 284 284 283 283 282 282 281 281 281 281 281 281 281 281 281 282 282 282 282 282 283 283 284 284 285 285 285 285 286 286 287 287 287 288 289 289 290 292 292 293 293 293 294 293
Height
10759 10761 10762 10763 10765 10765 10766 10767 10768 10770 10770 10770 10770 10770 10770 10769 10770 10771 10771 10771 10771 10771 10770 10770 10770 10769 10769 10769 10769 10769 10767 10765 10764 10764 10762 10759 10757 10757 10754 10751 10750 10747 10744 10743 10742 10738 10735 10732 10730 10728 10725 10723 10721 10718 10715 10712 10708 10704 10700 10696 10692 10687
10753 10754 10755 10756 10757 10758 10759 10759 10760 10761 10761 10762 10763 10762 10762 10762 10762 10762 10762 10762 10762 10761 10762 10761 10761 10761 10761 10761 10761 10761 10760 10757 10755 10755 10753 10750 10749 10748 10745 10742 10741 10738 10736 10734 10733 10730 10726 10724 10723 10720 10716 10715 10713 10710 10706 10702 10698 10695 10690 10686 10682 10678
10743 10746 10747 10749 10749 10750 10751 10751 10752 10752 10752 10753 10754 10754 10755 10755 10754 10754 10754 10754 10753 10753 10753 10752 10753 10753 10753 10753 10753 10753 10752 10748 10747 10745 10743 10742 10741 10739 10736 10734 10732 10729 10726 10725 10724 10721 10717 10716 10715 10712 10708 10706 10704 10700 10696 10693 10689 10685 10681 10677 10673 10668
10732 10734 10737 10739 10741 10742 10742 10742 10743 10743 10743 10743 10744 10745 10746 10747 10747 10747 10747 10746 10745 10745 10744 10744 10744 10744 10744 10744 10745 10745 10743 10740 10737 10736 10735 10733 10731 10729 10726 10725 10723 10720 10717 10715 10714 10712 10708 10706 10705 10703 10700 10697 10694 10690 10686 10683 10679 10676 10672 10667 10663 10659
10722 10723 10725 10726 10729 10730 10732 10733 10733 10733 10734 10734 10734 10736 10736 10738 10739 10738 10739 10738 10737 10736 10735 10735 10735 10735 10735 10735 10735 10735 10733 10731 10729 10727 10726 10724 10722 10719 10717 10715 10713 10710 10708 10706 10704 10702 10699 10697 10695 10693 10690 10687 10684 10680 10676 10673 10669 10666 10662 10658 10653 10648
10712 10713 10715 10715 10717 10718 10720 10722 10723 10724 10725 10725 10725 10726 10727 10728 10729 10729 10730 10729 10728 10727 10726 10725 10724 10724 10724 10724 10724 10724 10723 10722 10720 10718 10717 10715 10712 10710 10707 10705 10703 10701 10698 10696 10694 10692 10690 10687 10684 10682 10679 10676 10673 10670 10666 10663 10659 10656 10652 10647 10643 10638
10703 10703 10705 10706 10707 10708 10709 10710 10712 10714 10716 10717 10718 10718 10718 10718 10718 10719 10719 10719 10719 10718 10716 10716 10714 10713 10713 10712 10713 10714 10713 10712 10710 10708 10708 10705 10702 10700 10697 10695 10693 10691 10688 10686 10683 10682 10681 10678 10674 10671 10669 10665 10662 10659 10656 10653 10649 10645 10641 10637 10632 10627
10693 10694 10696 10697 10698 10700 10700 10701 10702 10703 10704 10706 10707 10708 10708 10708 10708 10708 10708 10708 10708 10708 10706 10705 10704 10703 10702 10701 10702 10702 10702 10701 10699 10698 10697 10695 10692 10690 10688 10686 10683 10681 10678 10676 10673 10670 10669 10667 10663 10661 10658 10655 10652 10649 10645 10642 10638 10635 10631 10626 10621 10616
10685 10687 10688 10689 10690 10691 10692 10693 10693 10693 10693 10693 10694 10695 10696 10697 10698 10698 10697 10697 10698 10697 10696 10695 10694 10694 10692 10692 10691 10691 10690 10689 10688 10687 10686 10684 10682 10680 10677 10675 10673 10670 10667 10665 10663 10660 10657 10656 10653 10650 10648 10644 10641 10638 10634 10631 10628 10624 10620 10615 10610 10605
10677 10678 10679 10680 10680 10681 10682 10683 10683 10683 10682 10682 10682 10682 10682 10683 10685 10686 10686 10687 10687 10686 10686 10685 10685 10684 10683 10682 10681 10679 10679 10678 10676 10675 10674 10673 10671 10669 10667 10665 10662 10660 10656 10654 10653 10649 10646 10644 10642 10639 10636 10633 10630 10627 10623 10620 10617 10613 10608 10603 10598 10594
10667 10667 10667 10669 10669 10670 10671 10671 10672 10672 10672 10671 10671 10671 10670 10670 10671 10672 10673 10674 10675 10675 10675 10675 10674 10674 10672 10671 10670 10669 10668 10667 10665 10664 10662 10661 10659 10657 10655 10653 10651 10648 10646 10644 10642 10639 10636 10633 10631 10628 10624 10622 10619 10616 10613 10609 10605 10601 10596 10591 10587 10583
10657 10657 10657 10657 10658 10658 10659 10660 10660 10661 10660 10661 10661 10660 10660 10660 10660 10659 10659 10660 10661 10662 10663 10664 10663 10663 10662 10661 10660 10659 10657 10656 10654 10653 10651 10649 10647 10646 10644 10641 10639 10637 10635 10633 10631 10629 10626 10622 10620 10616 10613 10611 10608 10604 10601 10597 10593 10588 10584 10580 10576 10571
10647 10647 10647 10647 10647 10647 10648 10648 10649 10649 10648 10649 10650 10649 10649 10649 10649 10649 10648 10648 10648 10648 10650 10650 10651 10651 10651 10650 10649 10648 10647 10645 10643 10641 10640 10638 10635 10634 10632 10630 10628 10626 10624 10622 10619 10617 10614 10611 10608 10605 10602 10599 10596 10592 10589 10585 10581 10577 10573 10569 10565 10560
10637 10637 10636 10637 10637 10637 10637 10637 10636 10636 10636 10637 10637 10637 10637 10637 10637 10637 10637 10636 10636 10636 10636 10636 10637 10638 10638 10638 10637 10636 10635 10634 10633 10630 10628 10626 10623 10622 10621 10619 10616 10615 10613 10611 10608 10605 10602 10599 10597 10594 10590 10587 10583 10580 10576 10573 10569 10566 10562 10558 10554 10549
10627 10626 10625 10625 10626 10628 10627 10627 10626 10626 10626 10626 10624 10624 10624 10624 10625 10625 10624 10624 10624 10624 10624 10624 10624 10624 10625 10625 10624 10624 10623 10622 10621 10618 10616 10613 10611 10610 10609 10607 10604 10602 10600 10599 10596 10593 10591 10587 10584 10581 10577 10574 10571 10568 10565 10561 10558 10554 10550 10547 10543 10539
10615 10615 10615 10615 10616 10617 10616 10616 10616 10616 10616 10616 10614 10613 10612 10611 10611 10611 10611 10610 10611 10611 10611 10611 10612 10612 10612 10611 10611 10610 10610 10609 10607 10605 10603 10601 10599 10597 10596 10594 10592 10589 10587 10586 10583 10581 10578 10574 10571 10568 10565 10562 10559 10556 10553 10549 10546 10543 10540 10537 10533 10529
10603 10603 10603 10603 10605 10605 10605 10605 10605 10604 10604 10604 10603 10602 10601 10599 10598 10597 10596 10596 10597 10598 10598 10598 10599 10599 10599 10598 10597 10597 10596 10594 10592 10591 10590 10588 10586 10584 10583 10580 10578 10576 10574 10572 10570 10567 10564 10561 10558 10556 10553 10550 10547 10544 10541 10538 10535 10532 10530 10527 10523 10519
10590 10589 10589 10590 10591 10592 10592 10591 10591 10591 10591 10591 10590 10589 10588 10587 10585 10583 10583 10583 10582 10583 10583 10583 10584 10584 10585 10584 10584 10583 10581 10579 10578 10577 10576 10575 10573 10571 10569 10567 10565 10563 10561 10559 10556 10553 10551 10548 10546 10544 10541 10538 10535 10532 10530 10527 10525 10522 10520 10517 10513 10508
10577 10576 10575 10575 10576 10576 10576 10576 10577 10577 10576 10576 10576 10575 10575 10574 10572 10570 10570 10569 10569 10568 10568 10567 10567 10568 10568 10569 10568 10567 10566 10565 10564 10562 10561 10561 10559 10557 10555 10553 10551 10550 10548 10545 10543 10540 10538 10536 10534 10532 10529 10526 10524 10522 10519 10517 10515 10512 10509 10506 10501 10496
10561 10560 10558 10559 10559 10559 10560 10561 10562 10561 10561 10561 10562 10561 10560 10558 10557 10556 10557 10556 10554 10553 10552 10551 10551 10551 10551 10551 10551 10551 10551 10550 10550 10548 10547 10546 10545 10543 10541 10539 10538 10536 10534 10532 10530 10528 10527 10525 10522 10520 10518 10515 10513 10511 10509 10506 10503 10501 10497 10493 10488 10482
10545 10543 10543 10542 10543 10544 10545 10546 10547 10546 10545 10546 10546 10546 10544 10542 10542 10542 10542 10540 10539 10537 10536 10536 10535 10534 10534 10534 10535 10535 10536 10536 10535 10534 10533 10532 10530 10528 10527 10525 10524 10522 10521 10520 10519 10517 10515 10513 10511 10508 10506 10503 10501 10499 10497 10494 10491 10488 10484 10479 10475 10470
10530 10529 10529 10528 10529 10531 10531 10531 10531 10531 10530 10530 10529 10528 10527 10526 10526 10525 10524 10523 10523 10522 10521 10521 10520 10519 10519 10519 10519 10520 10520 10520 10519 10519 10519 10518 10517 10515 10514 10513 10512 10511 10510 10508 10507 10505 10503 10500 10498 10496 10493 10491 10489 10487 10484 10481 10478 10475 10471 10467 10462 10457
10515 10515 10516 10516 10516 10517 10516 10517 10516 10515 10514 10514 10512 10511 10510 10510 10509 10508 10507 10507 10507 10506 10506 10506 10506 10506 10506 10506 10506 10506 10506 10505 10505 10505 10505 10505 10504 10503 10502 10501 10500 10499 10498 10497 10495 10493 10491 10488 10486 10484 10481 10479 10477 10475 10472 10469 10466 10462 10458 10454 10449 10445
10502 10502 10502 10503 10503 10503 10503 10503 10502 10501 10500 10499 10497 10496 10495 10494 10494 10493 10492 10492 10492 10492 10493 10493 10492 10493 10493 10493 10494 10494 10493 10493 10493 10493 10493 10492 10492 10491 10491 10490 10489 10488 10486 10485 10483 10481 10478 10475 10473 10471 10469 10467 10465 10462 10460 10457 10453 10449 10445 10441 10437 10433
10490 10489 10489 10489 10489 10490 10489 10489 10488 10488 10487 10486 10485 10484 10482 10481 10481 10480 10480 10479 10479 10480 10481 10481 10481 10481 10480 10481 10481 10481 10481 10481 10480 10481 10480 10480 10479 10479 10478 10477 10476 10475 10474 10472 10470 10468 10465 10462 10461 10459 10457 10455 10452 10450 10447 10443 10440 10436 10432 10429 10424 10419
10480 10479 10477 10477 10477 10477 10476 10476 10475 10475 10474 10474 10473 10472 10471 10471 10470 10470 10469 10468 10468 10469 10469 10470 10470 10469 10469 10469 10470 10470 10470 10469 10469 10469 10468 10468 10467 10467 10466 10465 10464 10462 10461 10460 10458 10455 10452 10450 10448 10446 10444 10442 10439 10436 10433 10430 10427 10424 10420 10415 10410 10405
10469 10468 10467 10467 10466 10465 10465 10464 10463 10463 10463 10463 10463 10462 10462 10461 10460 10460 10459 10458 10458 10458 10458 10459 10459 10459 10459 10459 10459 10459 10459 10458 10458 10458 10457 10456 10456 10455 10454 10453 10452 10451 10449 10447 10444 10441 10439 10437 10435 10433 10430 10428 10425 10422 10420 10417 10415 10412 10407 10402 10397 10393
10460 10459 10458 10457 10456 10455 10455 10453 10453 10453 10453 10452 10452 10452 10452 10451 10451 10450 10449 10449 10448 10448 10448 10449 10449 10449 10449 10449 10449 10449 10449 10448 10448 10447 10447 10446 10445 10444 10443 10442 10440 10438 10436 10434 10431 10428 10426 10425 10422 10419 10416 10414 10412 10410 10408 10406 10403 10399 10394 10389 10385 10381
10452 10451 10450 10448 10446 10446 10445 10444 10444 10444 10443 10443 10442 10442 10441 10441 10441 10440 10440 10439 10439 10438 10439 10439 10439 10439 10440 10439 10439 10439 10439 10438 10438 10437 10436 10435 10433 10433 10431 10430 10428 10426 10423 10420 10418 10416 10414 10412 10409 10406 10402 10401 10400 10399 10396 10393 10390 10385 10381 10377 10373 10369
10444 10442 10441 10439 10438 10436 10435 10435 10435 10434 10433 10433 10432 10432 10432 10431 10431 10431 10430 10430 10430 10429 10429 10429 10429 10429 10429 10429 10429 10429 10428 10427 10427 10426 10424 10423 10422 10421 10419 10417 10415 10413 10410 10408 10406 10404 10402 10399 10396 10392 10390 10389 10389 10386 10383 10381 10377 10373 10369 10364 10360 10356
10434 10433 10432 10431 10430 10428 10427 10426 10425 10425 10424 10424 10423 10423 10422 10421 10421 10421 10421 10420 10420 10420 10420 10420 10420 10419 10419 10419 10418 10418 10417 10416 10416 10415 10413 10411 10410 10409 10407 10405 10403 10400 10397 10396 10394 10392 10389 10387 10384 10379 10378 10378 10376 10373 10371 10368 10364 10361 10356 10352 10348 10344
10425 10424 10423 10422 10422 10421 10419 10418 10417 10416 10416 10415 10415 10414 10413 10412 10412 10412 10411 10411 10411 10410 10410 10410 10409 10409 10409 10408 10408 10407 10406 10405 10405 10403 10402 10400 10398 10397 10395 10393 10390 10388 10386 10384 10382 10379 10377 10375 10371 10367 10366 10365 10363 10360 10358 10355 10352 10348 10344 10339 10335 10331
10417 10416 10415 10414 10413 10412 10411 10410 10409 10408 10407 10407 10406 10405 10405 10404 10403 10402 10402 10402 10401 10401 10400 10400 10399 10399 10398 10398 10397 10397 10396 10395 10394 10393 10391 10389 10387 10386 10384 10382 10379 10376 10374 10372 10370 10367 10365 10362 10358 10355 10354 10353 10350 10348 10346 10343 10339 10336 10331 10327 10323 10318
10410 10408 10407 10407 10405 10404 10404 10403 10401 10401 10400 10399 10398 10397 10396 10396 10395 10394 10394 10393 10392 10392 10391 10390 10390 10389 10388 10387 10387 10386 10385 10384 10383 10382 10380 10378 10376 10374 10372 10370 10367 10365 10363 10360 10358 10355 10353 10351 10347 10344 10342 10341 10339 10336 10334 10330 10327 10324 10319 10314 10310 10305
10402 10401 10400 10399 10397 10397 10396 10395 10394 10393 10392 10391 10390 10389 10387 10387 10386 10385 10385 10384 10383 10382 10381 10380 10380 10379 10378 10377 10376 10375 10375 10373 10372 10371 10369 10367 10365 10363 10361 10359 10356 10353 10351 10349 10346 10344 10342 10339 10337 10334 10332 10329 10327 10325 10322 10318 10315 10312 10307 10302 10298 10292
10394 10394 10392 10391 10390 10389 10388 10387 10386 10385 10384 10383 10381 10380 10379 10378 10377 10377 10376 10375 10375 10374 10373 10372 10371 10370 10369 10368 10366 10365 10364 10363 10361 10360 10358 10356 10355 10352 10350 10348 10345 10343 10340 10338 10335 10333 10330 10328 10326 10324 10321 10318 10316 10313 10311 10308 10305 10301 10295 10290 10286 10281
10386 10385 10384 10383 10382 10380 10380 10379 10378 10377 10376 10374 10373 10371 10370 10369 10368 10368 10367 10367 10366 10365 10365 10364 10363 10362 10360 10359 10357 10356 10354 10353 10352 10350 10348 10346 10344 10342 10339 10337 10334 10332 10330 10327 10324 10321 10318 10317 10316 10314 10311 10308 10304 10301 10299 10297 10294 10288 10282 10279 10275 10270
10379 10377 10376 10375 10373 10372 10371 10370 10368 10368 10367 10365 10364 10363 10362 10360 10360 10359 10358 10357 10356 10356 10355 10354 10353 10353 10351 10350 10349 10347 10345 10344 10342 10340 10338 10336 10333 10331 10329 10327 10324 10321 10319 10316 10313 10309 10308 10307 10306 10304 10301 10297 10292 10288 10287 10285 10282 10275 10270 10267 10264 10259